カタログに戻る

COSMOS 2594

運用中軍事SSO
NORAD 65270·PAYLOAD·🇷🇺 Russia

打ち上げ Aug 21, 2025 から Plesetsk Cosmodrome

Loading…

次のパス (今後24時間)

TLE

最新Source: Space-Track

元期: Sep 14, 2026, 22:04 UTC

1 65270U 25182D   26257.91955385  .00042828  25484-5  10466-3 0  9997
2 65270  96.5842 187.1030 0006215 120.9435 239.2456 15.96346427 62022

AllMySatでCOSMOS 2594をリアルタイム追跡

Download on the App Store